Regional Weather Roundup
Issued by NWS Columbia, SC

Home | Current Version | Previous Version | Text Only | Print | Product List | Glossary On
Versions: 1 2 3 4 5 6 7 8 9 10 11 12 13 14 15 16 17 18 19 20 21 22 23 24 25 26 27 28 29 30 31 32 33 34 35 36 37 38 39 40 41 42 43 44 45 46 47 48 49 50
000
ASUS42 KCAE 201710
RWRCAE
REGIONAL WEATHER ROUNDUP
NATIONAL WEATHER SERVICE COLUMBIA SC
100 PM EDT FRI APR 20 2018

NOTE: "FAIR" INDICATES FEW OR NO CLOUDS BELOW 12,000 FEET WITH NO
SIGNIFICANT WEATHER AND/OR OBSTRUCTIONS TO VISIBILITY.

NOT ALL STATIONS ARE QUALITY CONTROLLED BY THE NATIONAL
WEATHER SERVICE. USE DATA WITH CAUTION...ESPECIALLY
DEWPOINT OBSERVATIONS.

SCZ001>056-GAZ040-063>065-077-201800-
...UPSTATE SOUTH CAROLINA...

CITY           SKY/WX    TMP DP  RH WIND       PRES   REMARKS
ANDERSON       FAIR      58  30  34 VRB5      30.37F
LIBERTY        FAIR      60  29  30 E6        30.35F
SPARTANBURG    FAIR      57  25  28 CALM      30.37F
CLEMSON        FAIR      57  29  34 E8        30.38F
GREENVILLE     FAIR      58  30  34 VRB5      30.37F
GREENWOOD      FAIR      59  30  33 VRB3      30.37F
GREER          FAIR      58  27  30 E6        30.37F
ROCK HILL      FAIR      59  31  34 VRB6      30.36F
CHESTER        FAIR      59  28  31 NE6       30.37F
LAURENS        FAIR      59  30  33 SE5       30.37F


...CENTRAL SOUTH CAROLINA...

CITY           SKY/WX    TMP DP  RH WIND       PRES   REMARKS
COLUMBIA APT   FAIR      63  28  26 NE9       30.34F
COLUMBIA OWENS FAIR      63  27  25 VRB5      30.35F
MCENTIRE ANGB  SUNNY     62  27  26 E8        30.34F
ORANGEBURG     FAIR      60  27  28 VRB5      30.34F
SUMTER SHAW    FAIR      62  28  28 N7        30.32F
NEWBERRY       FAIR      61  32  33 E5        30.39F
AIKEN          FAIR      59  28  31 NE8       30.37F
BARNWELL       FAIR      61  30  31 VRB5G12   30.34F
MANNING        FAIR      57  27  30 N8        30.34F
CAMDEN         FAIR      61  25  25 CALM      30.35F
LANCASTER      FAIR      59  25  27 E8        30.36F
WINNSBORO      FAIR      61  30  31 NE8       30.35F


...EASTERN AND COASTAL SOUTH CAROLINA...

CITY           SKY/WX    TMP DP  RH WIND       PRES   REMARKS
MYRTLE BEACH   FAIR      60  34  37 E12       30.34F
N MYRTLE BCH   FAIR      61  26  26 VRB6      30.32F
CONWAY         FAIR      61  30  31 CALM      30.34F HAZE
MARION         FAIR      59  30  33 CALM      30.34F HAZE
HARTSVILLE     FAIR      61  28  29 E10       30.34F
FLORENCE       FAIR      63  30  28 NE10      30.34F
DARLINGTON     FAIR      62  28  27 NE9       30.35F
CHARLESTON APT FAIR      64  35  34 VRB5      30.32F
MOUNT PLEASANT FAIR      63  37  39 E8        30.32F
WALTERBORO     FAIR      63  32  31 E10G17    30.34F
BEAUFORT       FAIR      64  37  36 NE9       30.33


...EASTERN GEORGIA...

CITY           SKY/WX    TMP DP  RH WIND       PRES   REMARKS
AUGUSTA BUSH F FAIR      64  30  27 NE9       30.34F
AUGUSTA DANIEL FAIR      63  28  26 NE9       30.35F
THOMSON        FAIR      60  30  31 E10       30.40F
WASHINGTON     FAIR      59  30  33 E10       30.35F
CLAXTON        FAIR      64  37  37 N10       30.32F
SYLVANIA       FAIR      63  39  42 E8        30.33F
STATESBORO     FAIR      63  29  27 NE8G17    30.33F
SAVANNAH       FAIR      64  38  38 NE13      30.32F


...SOUTHERN NORTH CAROLINA...

CITY           SKY/WX    TMP DP  RH WIND       PRES   REMARKS
CHARLOTTE      FAIR      60  28  29 VRB3      30.37F
MONROE         FAIR      58  28  32 VRB5      30.35F
WADESBORO      FAIR      60  25  26 NE8       30.35F
ROCKINGHAM     FAIR      60  28  30 N9        30.34F
RUTHERFORDTON  FAIR      58  28  32 CALM      30.36F
ASHEVILLE      FAIR      58  26  29 VRB5      30.35F

$$



USA.gov is the U.S. government's official web portal to all federal, state and local government web resources and services.